Flag Weather past 2 weeks in Yokosuka, Japan

Now
59 °F

Passing clouds.


Feels Like: 58 °F
Forecast: 59 / 64 °F
Wind: 6 mph from East

Location: Tokyo International Airport

Current Time: Nov 27, 2014 at 7:01:18 PM

Latest Report: Nov 27, 2014 at 6:30 PM


Visibility: N/A

Pressure: 30.18 "Hg

Humidity: 77%

Dew point: 52 °F

Location of YokosukaLocation

Historic Weather in Yokosuka — Graph

°F

Yokosuka temperature yesterday

Maximum temperature yesterday: 50 °F (at 12:00 AM)
Minimum temperature yesterday: 48 °F (at 5:00 AM)
Average temperature yesterday: 49 °F

Past Weeks' High & Low Weather Summary

 TemperatureHumidityPressure
High68 °F (Nov 13, 11:30 AM)94% (Nov 12, 9:30 PM)30.33 "Hg (Nov 12, 9:30 PM)
Low46 °F (Nov 14, 6:30 AM)29% (Nov 13, 6:30 PM)29.56 "Hg (Nov 13, 4:00 AM)
Average55 °F62%30.07 "Hg
* Reported Nov 12 6:00 PM — Nov 27 6:00 PM, Yokosuka, Weather by CustomWeather, © 2014

Note: Actual official high and low records may vary slightly from our data, if they occured in-between our weather recording intervals... More about our weather records

Advertising

Yokosuka weather history for previous 24 hours

 ConditionsComfort  
Time TempWeatherWind HumidityBarometerVisibility
6:00 PM
Nov 27
59 °FPassing clouds.3 mph72%30.18 "HgN/A
5:30 PM59 °FPassing clouds.3 mph68%30.18 "HgN/A
5:00 PM59 °FPassing clouds.1 mph68%30.15 "HgN/A
4:30 PM59 °FPassing clouds.1 mph68%30.15 "HgN/A
4:00 PM59 °FPassing clouds.1 mph68%30.12 "HgN/A
3:30 PM59 °FPassing clouds.3 mph68%30.12 "HgN/A
3:00 PM59 °FPassing clouds.7 mph68%30.12 "HgN/A
2:30 PM59 °FPassing clouds.7 mph68%30.09 "HgN/A
2:00 PM61 °FPassing clouds.5 mph63%30.09 "HgN/A
1:30 PM61 °FPassing clouds.5 mph63%30.09 "HgN/A
1:00 PM61 °FPassing clouds.3 mph59%30.09 "HgN/A
12:30 PM59 °FPassing clouds.5 mph63%30.09 "HgN/A
11:30 AM59 °FPassing clouds.9 mph63%30.09 "HgN/A
11:00 AM57 °FPassing clouds.8 mph67%30.09 "HgN/A
10:30 AM57 °FPassing clouds.9 mph67%30.09 "HgN/A
10:00 AM55 °FPassing clouds.7 mph72%30.09 "HgN/A
9:30 AM55 °FPassing clouds.8 mph72%30.09 "HgN/A
9:00 AM54 °FPassing clouds.8 mph72%30.09 "HgN/A
8:30 AM54 °FPassing clouds.3 mph72%30.09 "HgN/A
8:00 AM52 °FPassing clouds.3 mph77%30.09 "HgN/A
7:30 AM50 °FPassing clouds.7 mph82%30.07 "HgN/A
7:00 AM50 °FPassing clouds.8 mph82%30.07 "HgN/A
6:30 AM50 °FPassing clouds.7 mph76%30.04 "HgN/A
6:00 AM52 °FPassing clouds.10 mph77%30.04 "HgN/A
5:30 AM52 °FPassing clouds.9 mph77%30.01 "HgN/A
5:00 AM52 °FPassing clouds.8 mph77%30.01 "HgN/A
4:30 AM52 °FPartly cloudy.10 mph77%29.98 "HgN/A
4:00 AM52 °FPartly cloudy.12 mph77%29.98 "HgN/A
3:30 AM52 °FLight rain. Partly cloudy.9 mph82%29.98 "HgN/A
3:00 AM52 °FLight rain. Passing clouds.12 mph82%29.98 "HgN/A
2:30 AM50 °FLight rain. Passing clouds.15 mph88%29.95 "HgN/A
2:00 AM50 °FLight rain. Passing clouds.17 mph88%29.95 "HgN/A
1:48 AM50 °FRain. Passing clouds.18 mph88%29.95 "HgN/A
1:30 AM50 °FLight rain. Passing clouds.20 mph88%29.95 "HgN/A
1:00 AM50 °FLight rain. Passing clouds.16 mph82%29.95 "HgN/A
12:30 AM50 °FLight rain. Passing clouds.17 mph82%29.92 "HgN/A
12:00 AM50 °FLight rain. Passing clouds.18 mph88%29.92 "HgN/A
11:30 PM
Nov 26
50 °FLight rain. Fog.17 mph82%29.92 "Hg3 mi
11:00 PM48 °FLight rain. Passing clouds.20 mph87%29.92 "HgN/A
10:30 PM50 °FLight rain. Passing clouds.20 mph82%29.92 "HgN/A
10:02 PM50 °FLight rain. Passing clouds.22 mph82%29.92 "HgN/A
10:00 PM50 °FLight rain. Passing clouds.23 mph82%29.92 "HgN/A
9:30 PM48 °FLight rain. Passing clouds.23 mph87%29.92 "HgN/A
9:00 PM48 °FLight rain. Passing clouds.25 mph87%29.92 "HgN/A
8:30 PM50 °FLight rain. Passing clouds.22 mph82%29.92 "HgN/A
8:02 PM50 °FLight rain. Passing clouds.23 mph82%29.92 "HgN/A
8:00 PM50 °FLight rain. Passing clouds.23 mph82%29.92 "HgN/A
7:30 PM50 °FLight rain. Passing clouds.25 mph82%29.89 "HgN/A
7:00 PM50 °FLight rain. Passing clouds.26 mph82%29.89 "HgN/A
Weather by CustomWeather, © 2014

See weather overviewHow to use our weather pages